Location: Monrovia
(34.7865°N, 86.7139°W)
Time: 21:58:20
(UTC+00:00)

Hubble Space Telescope - Pass Details

Date: 14 July 2020
Orbit: 536 x 540 km, 28.5° (Epoch: 08 August)

Event Time Altitude Azimuth Distance (km) Brightness Sun altitude
Rises 01:38:35 0° 253° (WSW) 2,668 5.0 -7.5°
Reaches altitude 10° 01:40:58 10° 244° (WSW) 1,778 3.9 -7.9°
Maximum altitude 01:44:42 34° 179° (S) 894 1.6 -8.5°
Enters shadow 01:48:06 12° 116° (ESE) 1,660 2.6 -9.1°
